FW8536 Weather Reports


Display with metric or nautical units.
time (UTC)temp
F
wind
direction
speed
MPH
gust
MPH
rain 1hr
in
rain 24hr
in
rain mn
in
humidity
%
barometer
mb
20260831024523 58 360 4.0 5.0 0.00 0.00 0.00 75 995.8
20260831024015 58 280 4.0 6.0 0.00 0.00 0.00 75 995.7
20260831023513 59 280 4.0 6.0 0.00 0.00 0.00 73 995.7
20260831022513 59 280 5.0 5.0 0.00 0.00 0.00 73 995.4
20260831022012 59 280 4.0 6.0 0.00 0.00 0.00 72 995.4
20260831021512 59 360 5.0 6.0 0.00 0.00 0.00 72 995.3
20260831021010 60 280 5.0 6.0 0.00 0.00 0.00 71 995.2
20260831020508 60 360 5.0 6.0 0.00 0.00 0.00 70 995.1
20260831020008 61 360 5.0 7.0 0.00 0.00 0.00 68 995.0
20260831015508 62 277 5.0 9.0 0.00 0.00 0.00 67 995.0
20260831015005 62 271 6.0 9.0 0.00 0.00 0.00 66 994.9
20260831014506 63 264 7.0 12.0 0.00 0.00 0.00 64 994.8
20260831014004 63 360 7.0 14.0 0.00 0.00 0.00 63 994.7
20260831013504 64 265 9.0 14.0 0.00 0.00 0.00 62 994.5
20260831012503 65 246 11.0 20.0 0.00 0.00 0.00 60 994.7
20260831012002 65 248 15.0 20.0 0.00 0.00 0.00 59 994.6
20260831011503 65 252 9.0 13.0 0.00 0.00 0.00 61 994.7
20260831011002 65 360 9.0 15.0 0.00 0.00 0.00 61 994.6
20260831010501 66 360 8.0 15.0 0.00 0.00 0.00 60 994.4
20260831010001 66 360 10.0 15.0 0.00 0.00 0.00 59 994.5
20260831005501 66 360 9.0 15.0 0.00 0.00 0.00 59 994.4
20260831005001 67 360 11.0 14.0 0.00 0.00 0.00 59 994.4
20260831004501 67 360 8.0 14.0 0.00 0.00 0.00 60 994.2
20260831004001 67 216 9.0 15.0 0.00 0.00 0.00 59 994.2
20260831003601 67 228 10.0 15.0 0.00 0.00 0.00 60 994.2
20260831002501 67 360 9.0 14.0 0.00 0.00 0.00 63 994.3
20260831002001 67 360 8.0 12.0 0.00 0.00 0.00 66 994.2
20260831001503 66 207 7.0 11.0 0.00 0.00 0.00 66 994.0
20260831001100 66 222 7.0 11.0 0.00 0.00 0.00 68 994.1
20260831000600 65 360 6.0 11.0 0.00 0.00 0.00 71 994.1
20260830235600 64 194 7.0 12.0 0.00 0.00 0.00 72 994.4
20260830235059 64 215 7.0 12.0 0.00 0.00 0.00 71 994.3
20260830234606 64 360 7.0 10.0 0.00 0.00 0.00 72 994.4
20260830234058 64 202 7.0 10.0 0.00 0.00 0.00 72 994.5
20260830233559 64 202 6.0 9.0 0.00 0.00 0.00 73 994.4
20260830232559 63 222 5.0 9.0 0.00 0.00 0.00 77 994.7
20260830232058 63 360 7.0 10.0 0.00 0.00 0.00 77 994.6
20260830231604 63 194 6.0 10.0 0.00 0.00 0.00 77 994.7
20260830231057 63 259 2.0 5.0 0.00 0.00 0.00 74 994.2
20260830230556 63 360 2.0 8.0 0.00 0.00 0.00 74 993.8
20260830230055 63 248 4.0 19.0 0.00 0.00 0.00 73 994.0
20260830225555 64 360 11.0 19.0 0.00 0.00 0.00 71 994.6
20260830225053 64 360 12.0 20.0 0.00 0.00 0.00 69 994.8
20260830224605 65 360 14.0 23.0 0.00 0.00 0.00 66 995.0
20260830224052 66 234 17.0 26.0 0.00 0.00 0.00 64 995.3
20260830223550 66 240 18.0 31.0 0.00 0.00 0.00 62 995.1
20260830222550 67 360 27.0 34.0 0.00 0.00 0.00 61 995.5
20260830222049 67 236 26.0 36.0 0.00 0.00 0.00 61 995.4
20260830221549 69 244 24.0 38.0 0.00 0.00 0.00 60 995.3
20260830221049 70 244 28.0 38.0 0.00 0.00 0.00 57 995.2
20260830220547 69 242 25.0 33.0 0.00 0.00 0.00 58 994.9
20260830220048 68 248 23.0 33.0 0.00 0.00 0.00 58 994.5
20260830215547 68 248 23.0 36.0 0.00 0.00 0.00 58 994.1
20260830215048 69 360 26.0 36.0 0.00 0.00 0.00 60 994.4
20260830214546 69 251 28.0 37.0 0.00 0.00 0.00 60 994.3
20260830214043 68 251 28.0 38.0 0.00 0.00 0.00 61 994.1
20260830213542 69 241 30.0 38.0 0.00 0.00 0.00 58 994.1
20260830212542 69 245 29.0 37.0 0.00 0.00 0.00 54 993.9
20260830212042 70 244 28.0 40.0 0.00 0.00 0.00 54 993.8
20260830211542 71 251 31.0 40.0 0.00 0.00 0.00 52 993.9
20260830211041 71 251 29.0 41.0 0.00 0.00 0.00 55 993.9
20260830210540 70 360 31.0 41.0 0.00 0.00 0.00 53 993.9
20260830210045 69 258 27.0 38.0 0.00 0.00 0.00 57 994.1
20260830205537 69 250 27.0 33.0 0.00 0.00 0.00 64 993.9
20260830205036 68 257 23.0 30.0 0.00 0.00 0.00 68 993.8
20260830204539 69 360 21.0 34.0 0.00 0.00 0.00 68 993.8
20260830204035 70 360 24.0 31.0 0.00 0.00 0.00 68 993.5
20260830203533 70 360 18.0 25.0 0.00 0.00 0.00 70 993.2
20260830202533 67 360 16.0 23.0 0.00 0.00 0.00 77 992.9
20260830202033 68 288 17.0 25.0 0.00 0.00 0.00 74 992.8
20260830201533 70 360 17.0 28.0 0.00 0.00 0.00 70 993.0
20260830201031 70 258 21.0 31.0 0.00 0.00 0.00 69 993.0
20260830200530 71 275 22.0 30.0 0.00 0.00 0.00 67 992.8
20260830200030 71 360 23.0 30.0 0.00 0.00 0.00 67 992.6
20260830195530 71 293 23.0 29.0 0.00 0.00 0.00 65 992.5
20260830195032 73 360 20.0 30.0 0.00 0.00 0.00 62 992.1
20260830194530 73 275 22.0 30.0 0.00 0.00 0.00 65 992.2
20260830194030 73 360 23.0 30.0 0.00 0.00 0.00 64 992.0
20260830193531 74 360 23.0 29.0 0.00 0.00 0.00 63 991.8
20260830192529 77 263 20.0 27.0 0.00 0.00 0.00 60 992.0
20260830192030 77 259 20.0 27.0 0.00 0.00 0.00 60 991.9
20260830191529 77 273 21.0 27.0 0.00 0.00 0.00 61 992.0
20260830191029 77 274 20.0 26.0 0.00 0.00 0.00 60 992.0
20260830190529 79 360 21.0 26.0 0.00 0.00 0.00 59 991.7
20260830190033 79 262 15.0 24.0 0.00 0.00 0.00 60 991.8
20260830185533 78 299 17.0 24.0 0.00 0.00 0.00 60 991.9
20260830185030 78 248 15.0 21.0 0.00 0.00 0.00 62 991.9
20260830184528 77 360 12.0 24.0 0.00 0.00 0.00 63 991.9
20260830184027 77 254 19.0 24.0 0.00 0.00 0.00 62 991.9
20260830183527 79 267 16.0 25.0 0.00 0.00 0.00 61 991.7
20260830182527 79 268 18.0 24.0 0.00 0.00 0.00 61 991.6
20260830182026 79 269 17.0 22.0 0.00 0.00 0.00 61 991.5
20260830181527 79 261 16.0 22.0 0.00 0.00 0.00 60 991.5
20260830181027 79 304 13.0 22.0 0.00 0.00 0.00 60 991.4
20260830180526 79 285 11.0 22.0 0.00 0.00 0.00 59 991.4
20260830180025 79 360 12.0 20.0 0.00 0.00 0.00 60 991.3
20260830175524 79 275 9.0 18.0 0.00 0.00 0.00 59 991.2
20260830175024 79 360 10.0 18.0 0.00 0.00 0.00 59 991.2
20260830174524 78 297 11.0 15.0 0.00 0.00 0.00 61 991.1
20260830174024 78 294 10.0 15.0 0.00 0.00 0.00 60 991.1
20260830173525 78 294 10.0 16.0 0.00 0.00 0.00 60 991.1
20260830172523 78 360 12.0 21.0 0.00 0.00 0.00 58 991.3
20260830172027 78 360 12.0 18.0 0.00 0.00 0.00 57 991.3
20260830171523 78 360 13.0 18.0 0.00 0.00 0.00 58 991.2
20260830171022 77 360 12.0 19.0 0.00 0.00 0.00 58 991.1
20260830170523 78 257 12.0 21.0 0.00 0.00 0.00 59 991.2
20260830170022 78 257 13.0 22.0 0.00 0.00 0.00 59 991.1
20260830165521 78 252 13.0 22.0 0.00 0.00 0.00 58 991.0
20260830165029 78 249 15.0 23.0 0.00 0.00 0.00 56 991.2
20260830164521 79 263 17.0 23.0 0.00 0.00 0.00 54 991.2
20260830164021 79 246 13.0 22.0 0.00 0.00 0.00 50 991.2
20260830163521 79 233 15.0 21.0 0.00 0.00 0.00 50 991.0
20260830162519 80 232 16.0 21.0 0.00 0.00 0.00 49 991.2
20260830162020 80 360 12.0 19.0 0.00 0.00 0.00 50 991.0
20260830161522 80 234 9.0 15.0 0.00 0.00 0.00 50 991.0
20260830161020 79 216 9.0 16.0 0.00 0.00 0.00 51 991.0
20260830160519 79 212 11.0 16.0 0.00 0.00 0.00 50 991.0
20260830160021 78 227 11.0 16.0 0.00 0.00 0.00 50 990.9
20260830155518 78 207 12.0 15.0 0.00 0.00 0.00 50 991.0
20260830155022 78 203 9.0 14.0 0.00 0.00 0.00 52 990.9
20260830154517 77 213 8.0 15.0 0.00 0.00 0.00 55 991.0
20260830154017 76 175 9.0 15.0 0.00 0.00 0.00 56 991.0
20260830153517 76 175 9.0 18.0 0.00 0.00 0.00 59 991.1
20260830152521 74 360 13.0 19.0 0.00 0.00 0.00 60 991.1
20260830152017 74 169 11.0 19.0 0.00 0.00 0.00 64 991.1
20260830151516 74 178 13.0 19.0 0.00 0.00 0.00 64 991.2
20260830151016 73 184 13.0 18.0 0.00 0.00 0.00 64 991.2
20260830150517 73 198 12.0 16.0 0.00 0.00 0.00 68 991.1
20260830150015 73 188 11.0 15.0 0.00 0.00 0.00 71 991.3
20260830145517 72 360 9.0 19.0 0.00 0.00 0.00 73 991.2
20260830145016 72 192 12.0 19.0 0.00 0.00 0.00 73 991.2
20260830144517 71 186 11.0 16.0 0.00 0.00 0.00 75 991.2
20260830144020 71 171 10.0 16.0 0.00 0.00 0.00 76 991.4
20260830143515 71 182 9.0 16.0 0.00 0.00 0.00 78 991.4
20260830142518 70 182 10.0 13.0 0.00 0.00 0.00 81 991.3
20260830142016 69 179 8.0 11.0 0.00 0.00 0.00 84 991.4
20260830141518 68 182 6.0 11.0 0.00 0.00 0.00 86 991.4
20260830141014 68 360 7.0 11.0 0.00 0.00 0.00 86 991.3
20260830140515 67 184 7.0 10.0 0.00 0.00 0.00 87 991.4
20260830140014 67 168 5.0 9.0 0.00 0.00 0.00 89 991.4
20260830135516 67 360 6.0 9.0 0.00 0.00 0.00 89 991.4
20260830135015 67 171 4.0 7.0 0.00 0.00 0.00 91 991.4
20260830134516 66 360 5.0 8.0 0.00 0.00 0.00 91 991.3
20260830134014 66 140 5.0 8.0 0.00 0.00 0.00 91 991.2
20260830133517 66 139 5.0 8.0 0.00 0.00 0.00 91 991.3
20260830132513 65 140 5.0 8.0 0.00 0.00 0.00 91 991.4
20260830132017 65 148 5.0 8.0 0.00 0.00 0.00 91 991.3
20260830131516 65 360 4.0 6.0 0.00 0.00 0.00 90 991.3
20260830131014 65 360 4.0 6.0 0.00 0.00 0.00 90 991.5
20260830130514 65 78 2.0 3.0 0.00 0.00 0.00 90 991.5
20260830130013 65 78 0.0 2.0 0.00 0.00 0.00 90 991.6
20260830125513 65 78 1.0 3.0 0.00 0.00 0.00 89 991.6
20260830125013 65 78 2.0 3.0 0.00 0.00 0.00 89 991.7
20260830124513 65 78 1.0 4.0 0.00 0.00 0.00 89 991.8
20260830124013 65 78 1.0 3.0 0.00 0.00 0.00 89 991.9
20260830123513 64 78 3.0 6.0 0.00 0.00 0.00 88 992.0
20260830122513 64 78 4.0 7.0 0.00 0.00 0.00 88 991.9
20260830122015 64 78 4.0 7.0 0.00 0.00 0.00 87 991.8
20260830121514 64 360 4.0 9.0 0.00 0.00 0.00 86 991.9
20260830121013 64 74 4.0 9.0 0.00 0.00 0.00 86 991.9
20260830120513 64 78 5.0 8.0 0.00 0.00 0.00 86 992.1
20260830120012 63 360 2.0 6.0 0.00 0.00 0.00 84 992.0
20260830115512 63 360 3.0 7.0 0.00 0.00 0.00 84 992.1
20260830115013 64 46 5.0 7.0 0.00 0.00 0.00 84 992.2
20260830114511 64 360 4.0 7.0 0.00 0.00 0.00 83 991.9
20260830114016 64 360 5.0 8.0 0.00 0.00 0.00 83 992.0
20260830113511 64 33 5.0 8.0 0.00 0.00 0.00 83 992.0
20260830112512 63 360 4.0 6.0 0.00 0.00 0.00 83 991.8
20260830112014 64 49 3.0 6.0 0.00 0.00 0.00 83 991.8
20260830111513 64 360 3.0 6.0 0.00 0.00 0.00 83 991.7
20260830111012 64 50 3.0 6.0 0.00 0.00 0.00 83 991.5
20260830110512 64 12 4.0 6.0 0.00 0.00 0.00 82 991.7
20260830110012 64 360 4.0 11.0 0.00 0.00 0.00 82 991.6
20260830105511 64 360 5.0 11.0 0.00 0.00 0.00 82 991.4
20260830105011 64 40 7.0 11.0 0.00 0.00 0.00 83 991.2
20260830104511 63 360 6.0 10.0 0.00 0.00 0.00 83 991.4
20260830104011 63 360 7.0 11.0 0.00 0.00 0.00 83 991.3
20260830103511 63 30 7.0 11.0 0.00 0.00 0.00 84 991.2
20260830102510 63 15 7.0 10.0 0.00 0.00 0.00 83 991.2
20260830102009 63 26 8.0 12.0 0.00 0.00 0.00 83 991.1
20260830101509 63 22 9.0 12.0 0.00 0.00 0.00 83 991.1
20260830101009 64 34 7.0 11.0 0.00 0.00 0.00 83 991.2
20260830100507 64 52 8.0 11.0 0.00 0.00 0.00 82 991.1
20260830100007 64 360 7.0 12.0 0.00 0.00 0.00 82 991.2
20260830095504 65 33 8.0 13.0 0.00 0.00 0.00 82 991.2
20260830095003 65 39 9.0 14.0 0.00 0.00 0.00 82 991.2
20260830094503 65 30 10.0 14.0 0.00 0.00 0.00 84 991.2
20260830094001 66 28 7.0 16.0 0.00 0.00 0.00 87 991.1
20260830093502 66 37 11.0 18.0 0.00 0.00 0.00 88 991.1
20260830092603 67 23 11.0 18.0 0.00 0.00 0.00 90 991.1
20260830092100 68 32 13.0 19.0 0.00 0.00 0.00 91 991.2
20260830091558 68 360 12.0 19.0 0.00 0.00 0.00 92 991.1
20260830091057 68 360 10.0 16.0 0.00 0.00 0.00 91 991.3
20260830090559 68 49 10.0 15.0 0.00 0.00 0.00 91 991.2
20260830090056 68 28 9.0 13.0 0.00 0.00 0.00 91 991.2
20260830085558 68 21 9.0 12.0 0.00 0.00 0.00 91 991.1
20260830085054 68 360 7.0 12.0 0.00 0.00 0.00 90 991.1
20260830084555 68 21 8.0 11.0 0.00 0.00 0.00 89 991.1
20260830084052 68 360 7.0 10.0 0.00 0.00 0.00 89 991.0
20260830083552 68 42 7.0 10.0 0.00 0.00 0.00 88 991.1
20260830082549 69 360 8.0 11.0 0.00 0.00 0.00 85 991.1
20260830082048 69 18 8.0 10.0 0.00 0.00 0.00 83 991.1
20260830081549 70 26 6.0 10.0 0.00 0.00 0.00 82 991.0
20260830081046 70 360 7.0 10.0 0.00 0.00 0.00 82 991.0
20260830080546 70 360 6.0 10.0 0.00 0.00 0.00 80 991.1
20260830080053 70 46 7.0 10.0 0.00 0.00 0.00 79 991.1
20260830075544 70 360 5.0 9.0 0.00 0.00 0.00 78 991.3
20260830075042 70 360 5.0 8.0 0.00 0.00 0.00 76 991.2
20260830074558 70 51 5.0 8.0 0.00 0.00 0.00 75 991.2
20260830074041 71 360 5.0 8.0 0.00 0.00 0.00 73 991.3
20260830073540 71 360 5.0 7.0 0.00 0.00 0.00 72 991.4
20260830072539 71 360 5.0 7.0 0.00 0.00 0.00 68 991.6
20260830072038 72 360 5.0 8.0 0.00 0.00 0.00 66 991.7
20260830071538 72 360 4.0 8.0 0.00 0.00 0.00 64 991.7
20260830071036 72 360 6.0 10.0 0.00 0.00 0.00 63 991.7
20260830070536 72 360 6.0 10.0 0.00 0.00 0.00 62 991.6
20260830070038 72 360 7.0 12.0 0.00 0.00 0.00 60 991.8
20260830065533 72 360 7.0 12.0 0.00 0.00 0.00 58 991.9
20260830065034 73 360 6.0 10.0 0.00 0.00 0.00 56 992.0
20260830064536 73 28 7.0 10.0 0.00 0.00 0.00 55 992.0
20260830064032 74 360 7.0 11.0 0.00 0.00 0.00 55 992.0
20260830063533 74 42 7.0 13.0 0.00 0.00 0.00 56 991.9
20260830062530 74 44 8.0 13.0 0.00 0.00 0.00 54 991.9
20260830062030 74 360 7.0 11.0 0.00 0.00 0.00 55 991.9
20260830061532 73 38 6.0 10.0 0.00 0.00 0.00 55 992.1
20260830061030 73 40 6.0 10.0 0.00 0.00 0.00 54 992.2
20260830060529 73 57 6.0 9.0 0.00 0.00 0.00 52 992.2
20260830060028 73 360 6.0 11.0 0.00 0.00 0.00 51 992.0
20260830055528 73 360 7.0 11.0 0.00 0.00 0.00 49 992.0
20260830055027 73 360 7.0 10.0 0.00 0.00 0.00 47 992.0
20260830054525 73 34 6.0 9.0 0.00 0.00 0.00 48 992.0
20260830054025 74 360 6.0 9.0 0.00 0.00 0.00 50 992.1
20260830053524 74 360 5.0 8.0 0.00 0.00 0.00 51 992.1
20260830052524 74 360 5.0 7.0 0.00 0.00 0.00 48 992.0
20260830052025 74 360 4.0 7.0 0.00 0.00 0.00 48 992.0
20260830051524 75 360 5.0 7.0 0.00 0.00 0.00 48 992.1
20260830051024 75 360 5.0 8.0 0.00 0.00 0.00 48 992.1
20260830050522 74 360 6.0 8.0 0.00 0.00 0.00 48 992.1
20260830050023 74 13 5.0 9.0 0.00 0.00 0.00 49 992.1
20260830045521 74 360 6.0 9.0 0.00 0.00 0.00 49 992.1
20260830045022 75 360 5.0 9.0 0.00 0.00 0.00 49 992.1
20260830044520 75 360 6.0 9.0 0.00 0.00 0.00 48 992.1
20260830044020 75 360 6.0 7.0 0.00 0.00 0.00 49 992.1
20260830043522 75 360 5.0 7.0 0.00 0.00 0.00 49 992.2
20260830042520 75 12 5.0 6.0 0.00 0.00 0.00 49 992.2
20260830042021 75 18 4.0 7.0 0.00 0.00 0.00 49 992.1
20260830041528 76 360 5.0 8.0 0.00 0.00 0.00 48 992.2
20260830041021 76 360 5.0 8.0 0.00 0.00 0.00 48 992.0
20260830040519 76 16 5.0 8.0 0.00 0.00 0.00 48 992.0
20260830040023 76 360 5.0 9.0 0.00 0.00 0.00 48 991.9
20260830035519 75 27 7.0 9.0 0.00 0.00 0.00 48 991.9
20260830035022 75 11 5.0 8.0 0.00 0.00 0.00 49 991.9
20260830034519 75 5 5.0 9.0 0.00 0.00 0.00 48 991.9
20260830034018 75 360 7.0 9.0 0.00 0.00 0.00 48 991.9
20260830033518 75 360 6.0 7.0 0.00 0.00 0.00 48 991.9
20260830032519 75 360 2.0 5.0 0.00 0.00 0.00 48 992.0
20260830032016 76 28 0.0 5.0 0.00 0.00 0.00 48 992.2
20260830031514 76 32 1.0 6.0 0.00 0.00 0.00 47 992.2
20260830031012 77 42 4.0 6.0 0.00 0.00 0.00 46 991.8
20260830030514 77 76 3.0 5.0 0.00 0.00 0.00 45 991.8
20260830030009 78 75 3.0 5.0 0.00 0.00 0.00 45 991.8
20260830025509 78 76 2.0 5.0 0.00 0.00 0.00 44 991.7
20260830025009 78 76 2.0 5.0 0.00 0.00 0.00 44 991.7